Location: Kouchibouguac National Park
(46.7962°N, 64.9642°W)
Time: 01:13:40
(UTC-04:00)

ISS - Pass Details

Date: 25 October 2019
Orbit: 412 x 421 km, 51.6° (Epoch: 12 November)

Event Time Altitude Azimuth Distance (km) Brightness Sun altitude
Rises 07:06:40 0° 225° (SW) 2,362 -0.3 -8.3°
Reaches altitude 10° 07:08:48 10° 218° (SW) 1,501 -1.2 -8.0°
Maximum altitude 07:12:02 44° 145° (SE) 596 -2.6 -7.4°
Drops below altitude 10° 07:15:16 10° 73° (ENE) 1,506 0.2 -6.9°
Sets 07:17:25 0° 66° (ENE) 2,371 1.1 -6.5°
